RH
11 12 13 13 14 15 15 15 14 15 16 17 18 19 20 20 21 22 23 23 24 23 22 20 17 14 11 8 7 7 6 6 6 7 6 7 7 8 9 10 11 12 14 17 20 24 28 35 42 48 52 53 52 51 49 48 47 45 45 44 42 41 40 40 39 38 38 38 37 37 36 36 36 35 35 35 34 34 33 32 31 30 29 27 26 25 24 23
12 13 14 14 14 14 14 14 15 15 16 17 17 18 19 20 21 21 21 20 18 15 13 11 9 7 7 6 6 6 6 6 6 6 7 8 9 10 11 13 16 18 22 26 32 38 46 52 54 54 53 52 50 49 47 46 45 44 43 43 42 41 40 40 40 39 39 39 38 38 38 38 38 37 37 35 35 34 32 31 29 28 27 25 24 23 22 21
12 13 13 13 13 13 14 14 14 15 15 16 16 17 17 17 16 15 13 11 9 8 7 6 6 6 5 5 5 6 6 6 7 8 8 10 12 14 17 19 23 28 35 42 48 52 55 55 54 52 50 49 48 48 46 45 45 44 43 43 43 42 42 41 40 40 40 40 41 41 41 40 39 38 36 35 33 32 30 29 27 26 25 24 23 22 21 20
12 12 12 12 12 12 12 13 13 13 14 14 13 12 11 10 8 7 6 6 6 6 5 5 5 5 5 5 6 6 7 7 9 10 12 15 17 21 25 31 38 46 51 55 55 54 54 53 52 51 50 49 48 47 46 46 46 45 45 45 44 44 44 44 43 43 43 43 43 43 42 40 38 36 34 32 31 29 28 27 26 25 23 22 21 21 20 19
10 10 10 10 11 11 11 11 10 10 9 8 7 6 6 5 5 5 5 5 5 5 5 5 5 5 5 6 6 8 9 11 13 15 18 22 27 35 42 50 55 56 56 54 53 53 53 52 52 51 50 49 48 48 48 47 48 47 48 47 47 47 47 47 46 46 46 45 44 42 40 38 36 34 32 31 30 29 27 26 25 23 22 21 20 19 19 18
9 9 9 9 8 8 8 7 6 6 5 5 5 5 4 4 4 4 4 4 4 4 4 5 5 6 7 8 10 12 14 16 21 24 30 38 46 54 58 58 56 54 54 54 55 55 55 53 52 50 49 49 48 49 49 49 50 49 49 49 49 49 49 48 48 47 45 43 42 39 37 35 34 32 31 30 29 28 26 25 24 22 22 21 20 20 19 19
7 7 6 6 6 5 5 4 4 4 4 4 4 4 4 4 4 4 4 4 4 5 5 6 7 8 10 12 14 17 22 30 37 43 50 55 58 58 56 54 54 56 58 60 60 58 55 52 50 49 49 50 50 51 51 50 50 49 49 49 49 49 49 48 46 45 42 41 39 37 36 34 33 31 30 29 27 26 25 24 24 23 22 21 21 20 20 19
5 5 4 4 4 3 4 3 4 4 4 4 4 4 4 3 3 4 4 5 5 6 7 8 10 12 14 18 24 32 41 49 55 58 58 57 55 54 56 59 62 65 66 65 61 57 52 49 48 48 49 49 50 50 50 50 50 50 50 49 49 49 47 46 44 42 41 40 39 37 35 33 32 30 29 28 27 26 25 25 24 23 22 22 21 21 21 20
3 3 3 3 3 3 4 3 3 3 3 3 3 3 3 4 4 5 6 7 8 9 10 12 15 19 26 34 44 52 56 57 58 57 55 55 57 62 67 70 72 71 68 63 58 53 49 47 46 47 47 48 49 49 49 51 51 51 51 51 50 49 47 45 44 43 43 41 39 36 34 32 31 30 29 28 27 27 26 25 24 23 22 22 21 21 21 20
3 3 3 3 3 3 3 3 3 3 3 3 4 4 5 5 6 7 8 9 10 13 16 22 31 40 48 53 56 57 56 55 56 57 61 66 71 75 76 75 72 68 63 58 54 50 47 46 47 47 49 50 51 52 52 53 53 53 53 52 51 49 47 46 45 44 43 40 38 35 33 32 31 30 29 28 28 27 26 25 24 23 22 22 21 21 20 20
3 3 4 3 3 3 4 4 4 4 5 5 6 6 7 8 9 10 11 13 18 26 36 46 54 57 57 56 55 55 57 59 63 68 73 77 78 77 74 70 66 63 59 56 53 50 49 49 50 51 52 53 55 56 56 56 55 54 54 53 52 50 48 46 44 43 41 39 36 35 33 32 31 30 29 29 28 26 25 24 23 23 22 22 21 20 20 19
4 4 4 4 4 4 5 5 5 6 6 7 7 8 9 10 11 14 21 31 41 51 58 60 60 58 56 57 59 62 65 69 72 76 77 77 75 72 69 67 64 61 59 57 56 54 54 55 56 56 57 57 57 58 57 57 55 54 53 52 51 49 47 45 43 41 39 37 35 34 32 32 31 29 28 28 27 26 25 24 23 23 22 21 21 20 20 19
4 4 4 4 5 5 6 6 6 7 7 8 9 10 12 17 25 37 48 57 62 62 61 59 58 58 61 65 67 70 73 76 76 77 75 73 71 68 67 67 64 63 63 62 60 59 59 59 59 59 59 58 58 58 57 56 55 52 51 50 49 47 44 43 41 39 37 35 34 34 32 30 31 30 28 27 26 26 25 24 23 23 22 21 21 20 19 19
4 4 5 5 5 6 6 7 7 8 10 11 15 21 30 42 54 62 65 64 61 59 59 60 62 66 71 74 75 77 78 78 76 75 72 70 69 69 69 68 66 65 64 62 61 61 60 59 59 58 58 58 58 57 56 55 52 49 47 46 45 44 42 40 38 37 36 34 32 33 32 29 29 29 28 26 26 25 24 23 23 23 22 21 20 20 19 19
5 5 6 6 7 8 8 10 11 13 17 23 33 45 56 63 65 64 61 60 60 61 64 67 72 76 80 79 78 79 78 76 74 72 71 71 71 71 70 68 66 64 63 62 61 60 59 58 57 56 56 55 55 54 52 50 47 45 44 43 41 41 40 39 37 35 35 34 31 31 31 29 27 28 28 27 25 24 24 23 22 22 21 21 21 20 19 19
7 8 8 9 10 11 13 14 17 22 32 43 53 60 64 63 62 61 62 64 66 69 74 77 80 82 81 78 77 77 76 74 73 73 73 73 72 70 68 66 65 64 62 61 60 58 57 56 55 54 53 52 51 50 48 46 44 43 41 41 40 39 38 37 36 33 33 33 31 30 30 29 26 25 26 26 25 25 23 22 22 22 21 21 20 20 19 19
10 11 13 15 16 19 21 25 31 39 48 56 60 61 62 62 64 66 68 72 75 78 81 82 82 81 79 76 76 75 73 73 73 73 73 71 70 67 66 65 63 62 60 59 58 56 56 55 54 52 51 49 47 45 44 42 41 41 40 39 38 37 35 34 34 32 31 31 30 28 29 29 26 23 23 23 24 25 24 22 22 21 20 20 20 19 19 19
14 17 20 24 28 33 37 43 49 54 58 61 62 63 64 67 69 72 75 78 79 80 81 81 79 78 77 75 74 73 72 72 71 70 69 67 65 63 61 60 59 58 57 56 55 54 53 51 50 48 46 44 43 41 39 38 38 37 37 36 35 34 33 32 31 30 29 30 29 27 29 29 26 24 23 22 22 24 24 23 22 21 20 19 19 19 19 19
19 23 28 33 40 46 51 56 59 62 64 66 68 69 70 71 74 76 78 80 80 80 80 80 79 77 76 75 73 73 71 70 69 66 64 62 60 58 58 56 55 55 53 52 51 49 48 46 45 43 42 41 39 38 37 36 36 35 34 33 32 32 31 29 29 28 28 29 29 27 29 30 26 24 23 22 22 23 23 23 22 21 20 19 18 19 19 19
27 32 37 42 49 54 58 61 63 65 68 71 73 76 78 77 78 79 79 81 81 81 81 82 80 77 75 73 72 70 68 66 65 62 60 58 56 55 54 52 50 50 49 47 46 45 43 43 42 41 40 40 38 37 36 35 34 33 32 31 31 30 31 29 28 28 27 28 29 27 29 30 26 24 23 21 21 22 23 22 21 21 21 20 19 18 18 18
38 44 48 52 56 59 62 64 66 68 71 75 77 80 83 82 82 81 80 81 81 80 80 79 76 73 71 69 67 66 64 62 60 57 55 54 52 50 49 48 46 45 44 44 42 41 41 41 41 40 39 39 37 36 35 34 33 32 32 31 31 30 30 30 29 28 27 27 28 26 27 30 27 24 22 21 21 22 23 23 21 21 20 19 19 18 18 17
48 53 57 60 62 64 66 67 69 72 75 78 80 82 85 83 83 82 80 79 78 77 75 73 70 68 66 64 63 61 60 57 54 52 51 50 48 47 46 45 44 43 42 41 41 40 40 40 39 38 37 36 36 35 34 34 33 33 32 31 31 31 30 31 30 29 28 27 27 26 25 29 28 26 24 22 21 22 22 22 21 20 19 18 18 18 17 17
55 59 61 63 65 66 68 70 74 76 79 80 81 82 83 81 81 80 77 74 72 70 68 66 64 62 60 59 58 56 54 52 50 49 48 47 46 45 44 42 42 41 40 40 40 40 40 39 38 37 36 36 35 35 34 34 33 32 32 31 31 30 29 29 28 28 27 26 26 25 25 27 28 27 26 23 21 22 22 21 20 19 18 18 17 17 16 17
60 62 64 66 67 70 72 74 77 80 80 80 80 80 80 78 77 76 72 68 65 64 61 60 58 57 56 55 54 52 50 49 47 47 46 45 44 42 41 40 40 40 39 39 39 38 38 37 37 36 35 35 35 34 34 34 33 32 31 31 30 29 27 27 26 26 26 25 25 24 24 27 28 27 26 24 22 22 21 20 19 18 18 17 16 16 16 17
64 66 67 69 71 74 76 77 78 79 78 77 78 78 76 74 73 72 70 66 62 60 58 57 56 55 53 52 51 49 48 47 45 45 44 43 42 41 40 39 39 40 39 39 38 37 37 36 35 35 34 34 33 33 32 32 33 31 30 29 28 28 27 26 24 24 25 25 26 25 23 26 27 25 24 22 20 20 19 18 17 16 17 17 17 18 18 19
68 70 71 73 75 77 78 77 77 76 75 75 76 74 71 69 69 69 66 64 61 58 57 57 55 54 53 51 49 47 46 45 44 44 43 42 41 40 40 39 39 39 38 37 37 36 36 35 34 34 34 33 32 32 31 30 31 30 28 28 27 26 25 25 24 24 24 24 25 25 22 23 24 25 23 20 18 17 16 16 16 16 17 18 19 19 19 20
72 74 75 75 77 77 77 76 75 74 73 73 72 69 67 66 66 65 62 60 59 57 56 56 54 53 52 50 48 47 45 44 43 42 42 41 41 40 40 39 39 38 37 37 37 37 36 35 34 33 32 32 31 30 30 29 29 28 27 26 25 25 24 24 24 23 23 23 24 23 22 20 21 24 23 19 16 16 16 16 16 16 17 18 18 18 20 21
76 77 76 76 77 76 75 74 73 72 71 71 69 65 63 62 62 61 59 58 57 56 55 54 53 52 51 49 48 46 44 43 42 42 41 41 40 40 40 39 40 39 38 37 38 37 35 34 33 32 32 31 30 29 28 27 27 26 25 25 24 24 24 23 23 23 21 21 22 21 20 18 19 24 23 19 17 17 17 18 17 17 17 16 16 19 21 20
78 77 77 76 76 74 72 72 70 69 70 69 67 64 62 61 60 59 58 57 57 56 54 53 52 51 49 47 46 44 42 42 41 41 41 41 41 41 41 40 40 40 38 37 36 35 33 32 31 30 29 29 28 27 26 25 25 24 24 24 23 23 22 22 21 21 20 19 19 19 19 19 21 25 25 22 19 18 17 17 16 15 14 14 17 20 20 19
78 76 76 75 74 72 71 70 69 68 68 68 67 65 63 61 59 58 57 56 55 54 53 52 50 48 46 45 43 42 41 41 41 41 41 41 42 41 40 39 38 38 38 36 35 33 30 29 28 27 27 26 26 25 24 24 23 23 22 22 22 21 21 21 20 19 19 19 19 21 21 21 22 23 23 21 19 17 16 15 14 14 15 18 20 22 22 23
76 74 74 72 71 71 71 70 70 69 68 68 67 65 64 62 59 58 57 55 54 52 50 48 46 45 44 44 43 42 41 41 40 40 40 40 40 39 38 37 36 35 35 34 34 33 31 29 28 27 26 25 25 25 24 23 23 22 21 20 20 20 19 19 19 18 19 20 20 21 21 20 20 19 18 17 16 15 16 16 17 20 23 24 22 21 22 22
74 73 73 72 70 70 70 70 69 69 67 66 65 64 62 61 59 58 56 54 52 50 48 46 44 44 43 43 43 42 42 41 40 40 39 38 37 37 36 35 34 34 34 34 34 35 33 31 29 28 27 26 25 25 25 24 23 22 21 20 19 18 18 18 19 19 19 20 20 20 19 19 20 20 18 16 16 17 19 20 22 24 25 22 20 18 17 15
73 73 73 72 71 70 69 69 68 66 65 64 63 62 61 59 58 56 54 52 50 48 47 45 44 43 43 43 42 42 41 41 40 38 37 36 36 35 33 32 31 31 31 31 31 31 31 30 29 28 28 26 25 25 24 23 22 20 19 18 17 16 16 17 18 18 18 18 19 19 19 21 27 29 26 22 21 22 21 20 21 21 20 17 16 15 13 12
72 72 71 71 70 69 68 67 66 65 63 62 61 60 59 57 55 54 52 50 48 47 46 45 44 43 42 42 41 40 39 38 37 36 35 34 34 33 32 31 30 29 29 29 28 28 28 27 26 25 25 24 23 21 20 19 18 18 17 17 18 17 17 17 16 16 15 16 19 22 26 31 37 37 32 28 27 25 21 18 18 19 17 15 13 12 11 11
72 72 71 71 69 68 67 65 64 63 61 60 58 57 56 54 52 51 50 48 47 47 46 45 45 44 42 41 40 38 37 37 35 34 33 32 32 31 31 30 30 29 29 28 28 27 26 24 22 22 21 20 19 18 17 18 18 19 19 19 19 18 16 16 16 16 17 20 25 31 35 40 41 37 30 27 26 23 19 17 17 17 15 14 12 11 10 9
73 72 71 70 68 67 65 63 62 60 59 57 56 54 53 52 51 50 49 49 47 47 46 45 43 42 41 40 38 37 35 34 34 33 32 32 32 31 30 30 29 28 27 26 26 25 24 23 20 19 19 18 19 20 20 20 20 19 19 18 17 18 19 20 23 26 28 29 32 33 33 34 32 28 23 21 19 17 15 14 14 13 12 11 10 10 9 9
72 71 69 68 66 64 62 61 59 58 57 55 54 53 53 52 51 51 50 48 48 46 45 44 42 40 39 38 37 36 34 34 33 33 33 32 32 31 30 29 27 26 25 23 22 21 21 22 21 20 20 21 21 21 21 20 19 18 19 20 22 25 28 30 31 32 31 29 28 26 24 23 21 18 15 15 14 12 11 11 11 11 10 9 9 9 9 9
69 68 66 65 64 62 60 59 58 57 57 56 55 55 54 53 52 51 50 48 47 46 43 42 41 39 38 37 36 35 35 35 34 33 33 31 30 29 27 26 24 23 22 21 22 22 23 25 24 22 21 21 20 20 22 22 23 26 28 30 31 32 33 31 28 25 22 19 17 16 16 16 14 11 10 10 9 9 9 8 9 9 8 8 8 8 8 8
67 66 65 64 63 63 63 61 60 59 58 57 56 55 53 53 51 50 49 47 45 44 42 40 38 37 37 36 36 36 35 34 33 31 30 28 26 25 24 23 23 23 24 24 25 25 24 23 23 21 20 20 22 26 31 33 34 35 35 33 30 27 24 21 18 15 13 11 10 9 11 11 10 9 7 8 7 7 7 6 7 7 6 7 7 6 7 6
67 67 67 66 66 65 63 61 59 58 57 56 55 53 52 50 49 47 46 44 42 41 39 38 37 37 36 36 35 34 32 31 29 27 26 25 24 24 25 26 27 27 27 26 25 24 23 23 25 27 28 30 35 37 39 38 35 32 28 24 20 16 13 12 10 9 8 7 7 6 7 8 7 7 6 6 5 5 5 5 5 5 5 6 6 6 6 6
68 67 67 65 63 61 59 58 56 55 54 52 51 50 48 47 45 44 42 40 39 38 37 37 36 35 34 32 31 29 28 27 26 26 26 26 27 28 28 28 27 26 25 24 24 25 27 31 35 39 40 41 41 39 35 31 26 22 18 15 12 10 9 8 7 7 6 6 5 5 5 5 5 5 4 5 5 4 5 5 5 5 5 5 5 5 5 5
65 64 62 60 58 56 55 53 52 50 49 48 46 45 44 43 41 40 39 38 38 37 36 34 33 31 29 28 27 27 27 28 28 28 28 28 28 27 26 25 25 26 28 31 33 35 39 42 44 43 41 37 33 28 24 20 17 14 11 10 9 8 7 6 6 5 5 5 4 4 4 5 5 4 4 4 4 4 4 4 4 4 4 5 5 5 5 5
60 59 57 55 53 51 50 49 47 46 45 44 42 42 41 40 39 38 37 36 34 33 31 30 29 28 28 28 29 30 30 30 30 29 28 27 26 26 28 30 33 37 41 44 45 45 44 42 39 35 30 26 22 18 16 14 12 10 8 7 7 7 7 7 7 6 6 6 6 5 4 6 7 6 5 5 4 4 4 4 4 4 4 4 4 4 4 4
55 54 52 49 47 46 45 44 43 42 41 40 39 39 38 37 35 34 32 31 30 29 29 29 30 31 32 33 32 32 30 29 28 28 28 31 32 35 39 43 46 48 48 47 44 41 36 32 27 23 19 16 14 12 11 10 10 10 9 7 7 8 8 8 9 8 9 10 11 10 7 9 11 10 8 8 6 6 6 6 5 5 4 4 4 4 4 4
49 47 45 43 42 41 40 40 39 39 38 37 36 34 33 32 30 30 30 30 31 32 33 35 35 34 34 32 29 28 28 29 32 35 39 43 46 48 49 49 48 45 41 37 33 29 26 22 19 16 14 12 10 10 9 10 11 12 12 10 9 9 10 11 12 12 11 12 14 13 9 10 14 14 13 13 12 11 12 11 12 11 9 7 6 6 6 6
40 39 38 37 37 37 37 36 36 35 33 32 31 30 30 31 32 33 35 36 37 37 36 35 33 31 30 30 32 35 38 41 46 49 51 51 50 49 46 42 38 34 30 27 24 21 18 16 15 15 15 14 13 14 13 13 14 13 13 13 12 12 14 16 17 15 13 11 12 14 13 12 14 15 15 17 18 18 18 19 19 19 17 14 12 12 14 13
35 35 35 34 34 33 33 32 30 30 30 30 31 33 35 37 38 39 39 38 36 33 32 31 32 36 40 44 48 51 53 53 53 52 49 46 43 39 35 31 27 24 22 19 17 16 16 15 16 17 18 17 16 16 16 16 17 17 17 17 17 17 17 19 21 19 15 13 13 17 20 20 20 18 18 22 23 24 25 26 26 25 23 20 17 16 19 20
32 32 31 31 30 30 29 29 30 32 34 37 39 41 41 40 39 36 33 32 32 35 40 43 48 53 56 57 57 56 54 51 47 44 40 35 31 28 24 22 20 19 18 17 17 17 16 16 16 16 17 17 16 16 18 20 22 24 23 21 19 19 20 25 29 29 25 22 22 23 25 29 29 25 25 30 32 32 32 31 28 25 22 19 15 15 18 20
29 29 30 31 31 32 34 37 40 43 44 44 43 40 36 34 33 34 38 44 48 54 59 60 60 59 57 54 51 48 44 40 36 32 28 25 22 21 20 20 20 20 19 18 17 16 16 16 15 15 17 19 19 19 21 23 25 26 25 22 19 21 28 35 39 38 35 31 30 29 28 32 36 34 33 36 37 35 34 32 28 24 20 15 13 14 16 16
31 32 34 37 39 43 46 46 46 44 40 37 35 34 37 42 49 55 61 65 65 64 62 59 55 52 48 44 40 35 31 27 24 22 21 20 20 20 21 21 21 21 19 18 18 17 17 17 17 17 19 22 23 23 23 25 28 29 29 26 24 28 36 41 42 40 37 33 31 32 31 34 37 37 36 37 36 36 36 35 31 27 21 17 16 16 15 14
40 42 44 46 46 44 42 38 36 35 37 41 47 54 62 67 70 71 69 65 61 57 53 49 45 40 36 32 28 25 23 21 21 21 22 23 23 23 23 22 21 20 19 19 18 18 18 19 18 18 20 24 25 25 27 31 36 39 37 30 28 32 36 38 39 39 37 33 32 32 32 33 33 33 32 32 33 34 34 34 31 26 21 19 21 20 16 14
45 43 41 38 36 36 38 42 48 55 62 68 72 75 74 71 67 63 58 53 49 45 41 37 33 29 27 25 23 23 23 23 24 25 24 24 24 23 21 20 19 18 17 17 17 18 19 19 19 19 21 25 27 28 32 36 41 44 40 32 30 32 33 33 37 39 36 33 31 29 29 29 28 27 26 26 26 27 28 29 27 23 19 20 21 19 15 14
Wind_Speed
51 53 54 55 55 56 57 58 58 58 58 58 59 59 60 60 60 60 61 61 61 61 61 61 59 57 54 50 47 43 39 35 31 28 25 23 21 18 15 13 11 11 12 14 15 17 18 19 20 20 20 19 18 16 15 13 11 9 8 8 7 8 8 9 10 11 13 14 16 17 18 20 21 22 23 25 26 28 29 30 31 32 33 34 35 36 37 38
52 53 55 56 56 57 58 59 59 59 59 60 60 60 60 60 61 61 61 61 61 60 58 55 52 48 45 41 37 33 29 25 22 20 18 16 14 12 12 12 14 16 18 20 21 22 22 23 22 21 19 18 16 14 13 11 9 8 8 8 8 9 9 10 11 13 14 15 17 18 20 22 23 24 25 27 28 29 31 32 33 34 35 36 37 38 39 40
53 54 55 57 58 58 59 59 59 59 60 60 60 60 61 61 61 60 59 58 55 52 49 45 42 38 34 30 26 23 20 18 16 14 13 12 13 15 17 19 21 23 24 25 25 24 24 23 22 20 18 16 14 12 11 10 9 9 9 9 9 10 10 12 13 14 16 17 19 20 22 23 25 26 27 29 30 31 32 33 34 35 36 37 38 39 40 41
53 55 56 57 58 58 59 59 59 59 60 60 60 60 59 58 57 55 52 49 46 42 39 35 31 27 23 20 17 16 14 13 13 13 15 18 20 22 24 26 27 27 27 27 26 24 23 21 19 18 16 14 12 11 10 10 9 9 9 9 10 11 12 13 15 16 17 19 21 22 24 26 27 28 29 30 32 33 34 35 36 37 38 39 40 41 42 43
53 55 56 57 57 58 58 59 59 59 59 58 57 55 53 50 48 45 42 38 35 32 28 24 20 17 15 14 13 13 14 16 18 21 23 26 27 29 29 30 30 29 28 26 24 22 20 18 17 15 13 12 11 11 10 9 9 9 9 10 11 12 13 15 17 18 19 21 23 24 26 27 28 29 31 32 33 35 36 37 38 39 40 40 41 42 43 45
53 54 55 56 56 56 56 56 55 53 52 49 47 44 42 39 36 33 31 28 24 21 18 15 14 14 14 15 17 20 22 24 26 29 30 32 32 33 32 31 29 27 25 23 21 19 18 16 14 13 12 11 10 10 9 9 9 9 10 11 12 14 15 17 19 20 21 23 25 26 28 29 30 31 33 34 35 36 37 39 40 41 41 42 43 44 45 47
52 52 52 51 51 50 49 47 45 42 40 37 35 33 30 28 25 23 20 18 15 14 14 15 17 18 20 23 26 28 31 33 33 34 35 35 34 33 31 29 27 25 22 20 18 17 15 14 14 13 12 11 10 9 9 9 10 11 12 13 14 16 18 19 21 22 24 25 27 28 30 31 32 33 35 36 37 38 40 41 42 43 44 45 46 47 48 49
46 45 43 42 41 39 38 36 34 32 30 28 26 24 21 19 17 15 14 14 16 17 19 21 23 26 29 31 34 35 37 38 37 37 36 34 33 31 28 26 24 21 19 18 16 15 14 14 13 12 11 10 9 9 9 10 11 12 14 15 17 18 20 21 23 24 26 27 29 31 32 33 35 36 37 39 40 41 43 44 45 46 47 48 49 50 51 52
36 35 33 32 31 29 28 26 24 22 21 19 18 16 15 15 15 17 18 20 22 24 26 29 32 34 36 38 39 40 40 39 38 36 34 32 30 27 25 23 21 19 17 16 15 14 13 12 11 10 9 9 8 9 10 11 13 14 16 18 19 20 22 23 24 26 28 29 31 33 34 36 37 39 40 42 43 44 46 47 48 50 51 51 52 53 54 55
26 25 24 22 21 20 18 17 16 15 15 14 15 16 17 19 21 24 26 28 30 32 35 37 39 40 41 41 41 41 39 38 36 33 31 28 26 24 22 20 19 18 16 15 14 12 11 10 9 8 8 9 9 11 12 14 15 16 18 19 21 23 24 25 27 28 30 32 34 35 37 39 40 41 43 44 46 47 49 50 51 52 54 54 56 56 57 58
17 16 15 14 13 13 13 13 14 15 16 18 20 22 25 27 29 31 34 36 38 41 43 44 44 44 43 42 40 38 36 34 32 30 28 26 24 22 20 19 17 15 14 13 11 10 9 8 8 8 9 10 11 13 14 16 17 18 20 21 23 25 27 28 30 31 33 34 36 38 39 41 43 44 45 47 48 50 51 53 54 55 56 57 58 59 60 61
9 9 9 10 11 12 14 16 18 20 23 25 28 30 32 35 37 39 42 44 45 47 47 46 45 44 42 40 38 36 34 31 29 28 25 24 22 20 18 16 15 13 12 10 9 8 8 8 8 9 10 12 13 14 16 18 19 20 22 23 25 27 29 31 33 34 36 37 39 41 42 43 45 48 48 49 51 52 54 55 56 58 59 60 61 62 62 63
9 10 11 13 15 17 20 22 24 27 29 32 35 38 40 43 45 47 48 49 49 48 47 45 44 41 39 36 34 33 30 28 26 25 23 21 20 18 16 14 12 11 9 8 8 8 8 8 9 10 12 13 15 16 18 20 22 23 24 25 27 30 31 33 35 37 38 40 40 43 46 45 46 50 52 52 53 54 56 57 59 60 62 62 63 64 64 65
15 16 17 19 21 23 25 28 30 33 37 40 44 46 49 51 51 52 51 50 49 47 45 43 40 38 35 33 31 29 27 25 23 22 20 18 17 15 13 12 10 9 8 7 7 7 8 9 11 12 14 16 17 19 21 23 24 26 27 28 29 32 34 36 37 38 41 43 43 44 49 50 48 50 54 55 56 57 59 60 61 62 64 65 66 66 67 67
21 22 24 26 28 31 34 37 40 43 47 50 52 53 54 54 53 51 50 48 46 44 41 39 37 34 31 29 28 26 24 22 20 19 17 15 14 12 10 9 8 7 6 7 7 8 10 11 13 15 17 18 20 22 24 25 27 28 29 31 33 34 36 39 41 41 42 46 48 46 50 55 53 51 54 57 59 60 62 63 63 65 66 66 67 68 69 69
29 31 33 35 37 40 42 45 48 50 53 54 55 55 54 53 51 49 47 45 43 40 38 35 33 31 28 27 25 24 22 20 18 16 14 12 10 9 7 6 5 5 6 7 9 10 12 14 16 18 20 21 23 25 27 28 30 31 32 34 36 37 38 40 44 45 44 47 51 50 51 58 60 56 55 57 60 62 65 67 66 67 68 68 69 70 71 71
39 40 42 44 45 47 48 50 51 53 54 55 55 54 52 50 48 46 44 41 39 37 35 32 30 28 25 24 22 20 18 16 14 12 10 9 7 5 4 4 5 6 8 9 11 13 15 17 18 20 22 24 26 27 29 31 33 34 36 37 39 41 42 42 45 47 47 49 52 53 53 59 64 62 60 60 60 62 66 69 70 69 70 70 71 72 72 73
45 47 48 50 51 52 52 53 53 54 54 53 52 50 49 47 45 43 41 38 36 34 32 29 26 24 22 20 18 16 14 12 10 8 6 4 3 3 3 5 7 8 10 12 14 15 17 19 21 23 25 27 28 30 32 33 35 36 38 40 41 43 45 44 46 49 49 50 55 55 54 59 65 66 66 65 63 63 66 70 72 73 73 73 73 73 74 75
48 50 51 52 54 54 54 54 54 53 52 50 48 46 44 42 41 39 37 35 33 31 29 26 23 21 19 17 15 13 11 8 6 4 2 2 3 4 6 8 9 11 13 14 16 18 20 22 23 25 27 29 31 32 34 35 37 39 40 42 42 44 47 48 48 51 50 50 55 57 57 60 66 68 70 69 68 67 68 70 72 74 75 75 76 75 76 77
49 50 52 52 53 54 53 53 52 50 48 46 44 42 40 37 36 34 33 31 29 27 26 24 21 18 16 14 11 9 7 5 4 2 2 3 5 7 8 10 12 13 15 17 19 21 23 25 26 28 30 32 34 35 37 39 40 42 43 44 45 46 49 51 51 53 54 53 56 58 58 62 68 70 72 72 71 70 70 73 74 75 76 77 78 78 78 79
50 51 51 51 51 51 50 49 48 47 45 43 41 39 37 34 32 29 28 27 25 24 22 20 18 16 13 11 9 7 5 3 3 3 4 6 7 9 11 13 14 16 18 20 22 24 26 27 29 31 33 35 37 38 40 42 43 45 46 47 49 49 50 53 55 56 58 57 59 61 60 64 70 72 74 75 74 73 72 74 76 77 78 78 78 79 80 81
50 50 50 49 49 48 46 45 44 42 41 39 37 35 33 31 29 26 23 22 21 19 18 16 14 12 10 8 7 5 4 4 5 5 6 8 10 12 14 16 17 19 21 23 25 27 29 31 33 35 37 38 40 42 43 45 47 48 50 51 51 53 53 55 58 59 61 61 62 64 63 66 72 75 77 79 79 78 76 76 78 79 79 79 80 81 82 83
47 48 47 46 45 44 42 41 40 38 37 35 33 32 29 28 27 23 20 18 17 15 14 12 11 9 7 6 5 5 5 6 7 8 10 11 13 15 17 19 21 23 25 27 29 30 33 35 36 38 40 42 43 45 46 48 50 51 53 54 55 57 57 57 59 61 64 65 66 67 65 67 73 76 79 81 81 82 82 82 82 82 81 82 82 83 83 84
44 44 43 42 41 39 38 37 36 34 33 32 30 28 26 24 23 21 18 16 14 13 11 9 8 6 5 4 5 6 7 8 10 11 13 15 17 19 21 23 25 27 29 31 33 34 36 38 40 41 43 45 46 48 49 51 53 55 56 57 58 60 61 62 63 62 65 67 69 70 67 67 74 79 81 82 82 83 85 85 85 84 83 84 84 85 86 87
40 39 38 37 36 35 34 32 32 30 29 28 27 24 23 21 20 18 16 14 12 11 9 6 5 4 5 6 7 9 10 12 13 15 17 19 21 23 25 27 28 31 33 35 37 38 40 42 43 45 47 48 50 51 53 53 56 58 60 61 61 63 64 66 67 66 67 68 71 74 71 67 71 79 84 84 83 83 85 85 86 84 82 84 85 86 87 89
36 34 33 33 32 31 29 28 27 26 25 23 22 20 19 18 16 14 12 11 10 9 7 6 6 7 8 9 11 12 14 16 17 19 21 23 25 27 29 31 32 35 37 38 40 42 44 45 47 49 50 52 53 54 56 57 58 61 63 64 65 66 67 68 70 70 70 70 72 77 76 71 71 78 85 87 85 84 85 87 87 85 83 83 84 86 88 91
32 31 30 28 27 27 25 24 23 22 20 19 17 16 15 14 12 10 9 9 8 7 7 7 8 10 11 13 14 16 17 19 21 23 25 27 29 31 33 35 36 39 40 42 44 46 48 49 51 52 54 55 57 58 60 61 62 64 65 67 68 69 70 71 72 73 73 72 74 78 80 77 75 80 87 89 88 86 87 89 89 87 86 85 86 87 89 92
29 27 26 25 24 23 22 20 19 18 16 14 13 12 11 10 9 8 8 7 8 8 9 10 11 13 14 16 18 20 21 23 25 27 29 30 33 34 36 38 40 42 44 46 48 50 51 53 54 56 57 59 61 62 63 64 66 67 68 69 71 72 72 73 74 75 76 75 76 79 81 80 79 83 90 92 91 90 90 91 90 89 88 87 88 89 91 93
25 24 23 22 21 19 18 17 16 14 13 11 10 9 9 8 8 8 8 9 9 11 12 14 15 16 18 20 21 23 25 27 29 30 32 34 36 38 40 42 43 45 48 50 52 54 55 56 58 59 60 62 64 66 67 68 69 70 71 72 73 74 74 75 77 78 78 79 79 81 83 83 81 84 91 93 93 92 92 92 92 91 91 89 90 91 93 94
22 21 20 19 18 16 15 14 12 11 10 9 8 7 7 8 9 9 11 12 13 14 16 17 19 20 22 23 25 27 29 30 32 34 36 38 40 42 43 45 47 48 51 53 56 58 60 61 62 63 64 65 67 69 70 71 72 73 74 74 74 76 76 77 79 80 81 82 82 83 84 85 84 84 89 93 94 94 93 93 93 92 92 92 93 94 95 96
19 17 16 16 15 13 12 11 10 9 9 8 8 8 9 9 11 12 13 15 16 18 19 21 22 24 25 27 29 30 32 34 36 37 39 41 43 45 47 48 50 52 54 56 58 62 65 66 66 67 68 69 70 72 74 75 76 77 78 78 78 78 79 79 80 82 82 83 83 84 85 87 88 88 89 92 95 94 94 94 94 94 95 96 97 98 98 98
16 15 14 13 12 11 10 10 9 9 9 9 10 10 11 12 13 15 16 18 19 21 23 24 26 27 29 30 32 34 36 38 39 41 43 45 46 48 50 52 53 55 56 58 60 63 67 69 70 71 72 73 73 74 76 78 79 80 81 82 82 81 80 80 81 82 83 84 85 86 87 89 91 92 92 93 94 95 95 96 96 97 98 99 100 100 100 100
14 13 12 11 11 11 10 10 10 10 11 11 12 13 14 15 17 18 20 21 23 24 26 28 29 31 32 34 36 37 39 41 43 45 46 48 50 52 54 55 56 57 59 60 62 64 67 70 72 73 74 76 76 77 77 78 80 81 82 83 84 84 83 81 81 83 84 85 87 88 90 91 93 95 95 95 97 98 98 98 99 101 102 102 102 102 103 103
12 12 11 11 11 11 11 12 12 13 13 14 15 16 18 19 20 22 23 25 26 28 30 32 33 35 36 38 40 41 43 45 46 48 50 52 54 55 57 59 60 61 62 64 65 66 68 71 72 73 75 76 78 79 80 80 81 82 83 84 86 87 87 86 86 86 86 86 87 89 90 92 95 97 98 98 100 101 101 101 101 103 104 105 104 104 104 104
12 12 11 12 12 12 13 14 15 15 16 17 18 20 21 22 24 25 27 28 30 32 34 35 37 38 40 41 43 45 46 48 50 52 53 55 57 58 60 62 63 65 66 67 68 69 71 74 75 76 77 78 79 81 82 83 84 84 85 86 87 89 90 91 90 91 91 90 90 91 91 94 97 99 100 100 100 102 102 101 101 101 102 103 103 103 102 102
13 13 13 14 14 15 16 16 17 18 19 20 22 23 25 26 28 29 31 32 34 35 37 39 40 42 43 45 47 48 50 52 53 55 57 58 60 61 63 64 66 67 68 69 71 71 72 76 78 78 80 81 81 83 84 86 87 87 88 89 89 91 92 93 93 93 94 94 94 95 95 95 98 99 99 99 99 100 101 100 99 98 99 100 99 99 99 99
15 15 15 16 16 17 18 19 20 21 22 24 25 27 28 30 31 33 34 36 37 39 40 42 44 45 47 48 50 52 53 55 57 58 60 61 63 64 66 67 69 70 71 72 73 74 74 76 79 80 81 82 83 84 86 88 89 89 90 91 91 92 93 95 96 96 97 97 96 97 96 96 99 99 97 96 96 96 96 95 94 94 95 96 96 96 96 95
16 16 17 18 18 19 20 21 23 24 25 27 28 30 31 33 34 36 38 39 41 42 44 45 47 48 50 52 53 55 56 58 60 61 62 64 65 67 68 70 71 72 74 75 75 76 77 77 80 82 82 83 85 86 87 89 91 91 92 93 94 94 95 96 97 98 98 98 97 96 94 93 96 97 95 94 94 92 91 90 89 90 91 91 91 91 91 91
17 17 18 19 20 22 23 24 26 27 28 30 31 33 34 36 37 39 41 42 44 46 47 48 50 51 53 54 56 57 59 60 62 63 65 66 67 69 70 71 73 74 76 77 78 79 80 80 83 85 85 85 86 88 89 91 93 94 96 96 97 97 96 96 96 97 97 96 95 93 89 88 90 91 90 90 89 88 87 85 85 86 86 86 87 87 87 87
19 19 20 22 23 24 26 27 29 30 31 33 34 36 37 39 41 42 44 45 47 48 50 51 53 54 55 57 58 59 61 62 64 65 66 68 69 70 72 73 75 76 78 80 81 82 83 84 85 87 88 88 89 91 93 95 97 98 99 100 99 99 97 96 94 94 93 93 92 90 86 84 86 85 84 84 83 83 83 82 81 82 82 82 83 84 84 83
21 22 23 25 26 27 29 30 31 33 34 36 37 39 40 42 43 45 46 48 49 51 52 53 55 56 57 59 60 61 62 64 65 67 68 69 71 72 74 75 77 79 80 82 83 84 84 85 87 89 91 92 93 95 97 98 99 99 99 99 99 98 97 95 92 91 90 90 90 89 84 82 85 84 82 82 82 81 81 81 80 80 79 80 80 81 82 81
24 25 26 27 29 30 31 32 34 35 37 38 40 41 43 45 46 48 49 50 51 53 54 55 56 58 59 60 61 63 64 65 67 69 70 72 73 75 76 78 79 80 82 83 85 86 87 87 89 92 94 95 96 96 97 98 98 97 96 95 95 95 95 94 92 89 88 88 88 87 83 82 85 85 82 82 82 82 82 81 80 79 78 78 79 79 80 80
26 27 28 30 31 32 34 35 37 38 40 41 43 44 45 47 48 49 50 52 53 54 55 56 58 59 60 62 63 64 66 68 70 72 73 74 76 77 78 79 80 82 83 85 87 89 90 91 91 93 95 95 95 96 96 96 95 95 94 93 92 92 91 91 91 90 88 87 88 87 84 82 87 88 85 84 83 83 85 84 82 80 78 78 78 78 79 78
28 29 31 32 34 35 36 38 39 41 42 44 45 46 47 48 49 51 52 53 54 55 56 58 59 60 62 64 65 67 69 70 72 73 74 76 77 78 79 81 83 84 86 87 89 91 92 93 93 93 94 93 91 92 92 91 92 93 93 92 91 90 90 90 91 91 90 89 91 92 88 85 89 91 90 89 89 89 90 91 90 88 85 83 82 82 82 81
30 32 33 35 36 37 39 40 42 43 44 45 46 47 48 49 51 52 53 54 55 56 58 59 61 63 65 67 68 69 70 71 72 74 75 77 78 80 82 84 85 87 88 89 90 91 91 92 92 92 94 93 92 92 92 91 91 92 92 92 91 90 91 92 92 93 92 90 91 93 92 89 90 93 93 93 93 93 95 96 96 96 95 92 90 89 89 89
33 34 35 37 38 39 40 42 43 44 45 46 47 48 49 50 52 53 54 55 57 59 61 62 64 65 66 68 69 70 71 72 73 75 77 79 81 83 84 86 87 88 88 88 88 87 87 87 87 88 91 93 92 93 94 94 94 93 92 91 90 89 90 91 92 93 93 91 90 92 94 92 92 93 93 93 94 94 95 97 97 98 98 98 97 96 95 95
34 36 37 38 39 40 41 43 44 45 46 47 48 49 50 52 53 55 56 58 60 61 62 63 64 65 66 67 69 71 73 75 77 78 80 81 83 84 85 85 86 86 85 85 84 84 83 83 83 83 86 89 89 89 91 92 93 93 92 89 88 87 88 89 90 92 94 93 92 92 93 93 93 94 93 93 94 95 95 96 97 98 98 99 99 98 97 97
36 37 38 39 40 41 42 43 44 45 47 48 49 51 52 54 55 57 58 59 60 61 61 63 64 65 67 68 70 72 74 77 79 80 81 82 82 82 82 82 82 82 82 81 80 80 80 80 79 78 80 85 86 85 86 88 90 91 91 88 85 85 86 86 87 89 92 94 94 92 91 90 92 94 93 92 93 94 95 96 98 99 99 100 99 98 98 98
36 38 39 40 41 42 43 44 46 47 49 50 52 53 54 55 56 57 57 58 59 60 61 63 65 67 70 71 73 74 75 76 77 77 78 78 78 78 78 78 78 78 78 78 77 77 76 76 76 74 75 81 84 83 83 85 87 89 90 88 84 83 83 82 82 84 88 91 92 92 90 88 89 91 91 91 92 94 95 98 100 102 103 103 102 101 101 100
37 38 40 41 42 43 45 46 48 49 50 51 52 53 53 53 54 56 57 58 60 62 64 66 69 71 72 74 74 75 75 74 73 73 73 73 73 73 73 74 74 75 76 76 76 76 75 75 75 73 73 77 81 81 81 83 86 88 89 87 83 80 77 76 77 80 84 88 89 89 89 87 87 89 89 89 91 93 94 97 100 103 104 105 105 105 104 103
38 40 41 42 44 45 46 48 48 48 49 49 50 50 51 53 55 57 59 61 63 65 67 69 71 72 72 72 72 71 71 71 70 70 70 70 70 71 72 72 73 74 75 75 76 77 77 76 76 75 72 73 76 77 77 78 80 83 87 86 82 78 76 74 73 75 81 87 88 87 86 87 87 89 89 88 89 90 92 95 99 102 104 105 105 106 106 105
40 41 43 43 44 44 44 45 45 45 46 48 49 51 53 55 57 59 62 64 66 67 69 69 69 69 68 68 68 67 68 68 68 68 69 70 71 72 73 74 75 75 75 76 77 78 79 78 77 76 74 72 73 74 72 72 74 78 84 86 82 80 78 74 70 70 76 85 88 87 87 88 89 90 91 91 90 90 91 94 98 102 102 102 104 106 107 106
Wind_Direction
258 259 260 260 261 262 263 264 265 267 268 269 269 270 270 271 271 272 273 273 274 274 275 275 276 276 276 275 274 273 272 270 268 265 262 258 253 248 239 227 211 192 175 165 157 152 149 145 143 142 144 146 148 149 150 152 157 164 173 186 201 215 229 240 248 257 263 270 274 279 282 284 285 287 289 290 291 292 292 293 293 294 294 295 295 295 295 295
261 262 262 263 264 264 265 266 267 268 268 269 269 270 270 271 271 272 272 272 273 274 274 274 273 272 271 270 269 267 265 262 257 252 246 238 227 212 192 174 162 154 149 146 143 141 139 138 138 140 142 144 145 147 149 155 164 176 190 203 216 228 240 250 258 263 269 274 278 282 284 286 287 289 290 291 292 293 294 295 295 296 296 296 296 296 296 296
262 263 264 265 266 266 267 267 268 268 269 269 269 270 270 270 271 271 271 271 271 271 270 269 267 266 265 263 261 256 250 243 236 226 212 194 177 162 153 149 145 142 139 137 136 135 136 137 138 140 141 142 145 149 156 168 179 192 207 218 230 240 251 258 265 270 274 277 281 284 286 288 289 291 292 293 294 295 296 297 297 297 298 298 298 298 299 298
264 264 265 266 266 267 267 268 269 269 269 269 269 270 269 269 269 269 268 267 266 265 264 262 260 258 254 248 240 233 222 209 193 179 165 154 149 145 142 139 136 135 134 133 134 134 135 136 138 139 142 146 153 161 171 184 194 205 220 232 242 252 260 266 271 274 278 281 285 287 289 290 291 293 294 295 297 297 298 299 299 299 300 300 301 301 301 300
265 265 266 266 267 268 268 269 269 269 269 269 269 268 268 267 266 264 263 261 259 257 255 252 246 238 228 217 203 188 174 162 154 149 145 142 139 137 134 132 132 132 132 132 133 134 135 137 139 142 148 156 165 175 185 197 208 218 233 244 253 261 267 272 276 279 282 285 287 289 290 291 293 294 295 296 298 299 300 300 300 301 301 302 302 302 302 302
267 268 268 268 269 269 269 268 268 268 267 267 266 265 263 261 259 257 254 251 248 244 236 225 212 199 185 172 160 152 146 142 141 139 138 136 134 132 131 131 131 131 131 132 133 135 137 141 145 151 159 168 177 186 198 212 224 235 245 254 261 267 272 276 280 283 286 288 290 291 292 293 294 296 297 298 299 300 301 301 302 302 303 303 304 304 304 304
269 269 269 269 268 268 267 267 266 264 262 260 258 255 253 249 246 242 238 231 222 209 195 184 173 162 153 146 142 140 138 136 136 135 133 132 132 131 130 130 130 130 131 133 136 140 145 150 156 162 170 179 189 200 212 226 239 249 257 264 269 274 278 281 284 287 290 291 292 293 294 295 297 298 300 301 301 302 302 303 303 304 304 304 305 305 305 305
270 269 269 267 266 265 263 261 259 256 252 249 245 241 236 230 222 212 200 188 178 169 163 156 148 143 139 137 136 135 134 134 133 132 131 131 130 129 129 129 131 133 136 139 144 149 155 160 166 174 182 193 203 216 229 241 252 260 267 272 276 279 282 284 287 290 292 293 294 295 296 298 300 301 302 303 303 304 304 304 305 305 305 305 305 305 305 305
268 266 265 262 260 258 255 251 247 242 237 231 224 215 205 193 180 170 162 157 153 148 144 139 136 135 134 134 133 133 133 132 131 130 130 129 129 129 130 133 135 138 143 147 152 157 163 169 176 186 197 211 225 238 249 257 264 270 274 278 281 283 285 288 290 292 294 295 297 298 299 300 301 302 303 303 304 304 304 305 305 305 305 305 305 305 305 305
262 259 256 253 249 245 239 232 224 215 205 195 184 174 165 158 153 149 145 142 139 135 134 132 132 132 132 132 131 131 131 131 130 130 130 130 131 133 135 138 141 145 149 153 158 163 170 179 189 202 216 231 245 256 263 268 273 277 281 285 288 290 291 293 294 296 297 298 299 300 300 301 302 302 303 303 304 304 304 305 305 305 304 304 304 305 305 305
250 245 239 231 223 213 203 192 183 174 166 159 154 149 146 143 140 137 134 132 131 130 130 130 131 131 131 130 130 130 130 130 130 131 132 134 135 137 139 143 146 149 153 157 163 170 180 193 206 222 236 247 256 264 270 275 280 284 288 291 293 294 295 296 297 297 298 298 299 300 300 301 301 302 302 303 303 304 304 304 304 304 304 304 304 304 305 305
219 208 197 185 175 168 162 157 153 149 146 143 140 138 135 132 130 128 127 127 128 129 129 130 130 130 130 130 130 131 131 131 132 133 135 137 139 140 142 145 148 152 157 163 171 182 196 211 227 240 251 260 267 274 278 282 285 287 290 292 294 294 295 295 296 296 297 298 299 299 299 301 302 302 302 302 303 303 303 304 303 303 303 304 304 304 305 305
158 153 149 146 144 144 143 141 140 138 136 134 131 129 127 126 125 125 126 127 128 129 129 129 130 130 129 129 131 131 131 133 134 135 137 139 141 143 144 147 152 157 164 174 188 203 218 232 246 255 263 271 276 281 283 285 287 289 290 292 293 294 294 294 294 295 296 296 297 299 299 299 301 302 302 302 302 302 303 303 303 303 303 303 304 304 305 305
130 130 130 131 133 134 133 131 130 129 127 126 124 123 123 124 125 126 127 128 129 129 129 129 129 128 128 129 131 131 132 134 136 137 139 141 143 145 148 153 160 169 180 194 211 227 241 252 261 267 272 277 281 283 285 286 287 289 290 291 292 293 294 294 294 295 297 297 297 299 300 299 300 301 301 302 302 302 302 302 302 302 303 303 304 304 305 305
120 121 123 124 125 125 125 125 125 124 124 123 123 123 124 125 127 128 128 128 128 128 128 127 127 127 128 131 132 132 134 136 137 139 141 144 146 150 155 163 173 188 205 222 239 251 261 268 273 278 281 283 285 286 286 287 288 290 292 293 294 293 294 295 295 295 297 298 298 299 300 299 299 300 301 302 302 303 302 302 302 302 302 303 304 304 305 305
116 118 119 120 121 122 123 124 124 124 124 124 125 126 126 127 128 128 127 127 127 127 127 127 127 128 130 133 133 134 136 137 138 140 143 147 151 158 166 180 198 219 240 253 264 272 278 282 285 287 289 289 289 289 289 291 292 293 294 294 295 294 294 295 296 296 297 298 298 300 301 300 299 299 300 301 302 303 302 302 302 302 303 303 304 304 304 305
117 118 118 119 120 121 122 123 124 124 125 125 126 127 127 127 127 127 127 127 127 127 127 127 128 129 131 133 134 135 136 136 139 141 146 151 157 171 188 221 249 267 275 280 284 286 288 290 291 292 293 293 292 293 294 295 296 297 297 296 296 296 295 296 296 297 299 299 299 300 302 302 300 301 300 300 301 303 303 303 303 303 303 303 304 304 304 305
119 119 119 120 121 122 122 123 123 124 124 125 125 126 127 127 127 127 127 127 127 127 126 127 128 128 129 131 131 131 132 132 136 139 144 156 178 227 260 276 281 286 287 289 291 292 293 293 294 294 294 294 295 296 297 298 298 297 297 297 297 297 297 297 297 298 299 301 301 301 303 303 301 301 301 301 301 302 302 303 303 303 303 303 303 304 305 305
120 121 122 122 123 123 123 124 124 124 124 124 124 124 125 126 127 127 127 127 127 126 126 125 126 128 129 130 129 128 130 130 135 143 161 222 263 275 282 286 287 288 289 290 293 295 295 295 295 296 296 296 297 298 298 298 297 296 296 295 296 297 297 297 297 298 299 301 301 302 305 304 302 301 301 302 302 303 303 302 302 302 303 303 304 304 305 305
121 122 123 124 124 124 124 124 124 124 124 124 124 124 124 125 125 126 126 126 127 126 126 126 127 130 130 129 129 130 135 140 156 183 242 270 279 283 286 289 292 293 294 295 296 297 297 297 298 298 299 299 299 299 298 297 296 295 295 295 295 296 297 298 298 298 299 301 301 302 305 305 302 301 301 301 302 303 303 303 302 302 303 303 304 305 305 305
121 122 123 123 124 124 124 124 124 125 124 124 125 124 124 124 123 124 125 125 126 126 126 127 131 133 132 135 138 142 153 176 209 235 267 283 288 290 293 295 297 298 298 299 298 298 299 299 299 300 300 300 299 298 297 296 296 296 296 296 297 297 298 300 300 300 300 302 302 302 304 305 303 302 302 302 302 303 303 302 302 302 303 303 304 305 305 305
122 122 123 123 123 123 124 124 124 124 124 124 125 124 124 125 123 123 124 125 126 128 130 133 136 139 142 149 156 171 192 220 242 258 275 287 293 295 297 298 299 299 299 299 300 301 301 300 300 300 299 299 298 298 297 297 297 297 297 297 298 298 299 300 301 301 302 302 303 303 304 305 304 303 303 303 303 303 303 302 302 302 303 304 305 305 305 306
121 122 122 123 123 123 124 124 124 124 124 125 125 124 125 126 125 125 128 131 133 136 140 144 148 151 157 170 188 212 233 254 265 276 284 289 293 295 297 298 300 300 301 301 301 302 301 300 300 299 298 298 297 297 298 298 297 297 297 298 298 298 298 299 300 302 302 303 303 303 304 306 304 304 303 303 304 304 305 304 303 304 305 305 305 305 305 305
121 121 122 123 123 123 124 125 125 125 126 127 127 127 130 131 131 132 136 143 148 152 155 160 166 172 188 212 238 252 265 275 280 286 289 291 293 294 297 298 301 302 302 302 301 300 299 298 298 297 297 296 296 297 297 298 298 298 298 298 299 299 299 299 299 301 302 302 303 302 304 306 305 304 304 303 303 304 304 303 303 304 305 305 305 306 305 305
120 121 122 123 124 124 125 126 127 128 130 130 130 133 138 140 140 143 148 156 163 167 172 182 198 220 243 256 270 275 281 286 288 292 293 295 296 298 299 300 301 302 301 300 299 298 297 297 296 296 296 296 296 296 296 297 298 298 298 298 299 299 300 300 300 301 302 303 303 303 303 305 305 304 302 301 301 301 301 301 302 303 304 305 305 306 305 304
121 122 123 124 125 126 128 129 130 132 133 133 136 143 148 149 151 157 163 170 178 186 196 219 239 259 269 274 282 287 290 293 294 296 296 297 298 299 300 300 300 299 299 298 298 297 296 296 296 296 296 296 296 296 297 297 298 298 298 299 299 299 300 300 301 302 302 303 304 303 303 304 304 303 300 300 300 300 301 301 301 302 304 304 305 304 303 302
125 126 127 128 128 130 132 133 135 137 137 140 146 154 159 161 167 175 183 193 205 218 231 251 264 275 282 286 291 293 296 297 297 297 297 298 298 298 298 298 298 298 297 298 298 297 297 296 296 296 296 297 297 297 297 297 298 298 298 299 299 300 301 301 302 303 303 304 304 304 304 305 305 303 300 300 300 301 301 301 302 303 304 304 304 302 301 300
129 131 132 133 134 136 138 140 142 143 144 150 159 168 174 179 190 201 214 228 240 251 260 270 276 283 289 292 294 296 296 298 297 297 297 297 297 297 297 298 298 298 297 297 298 297 297 297 297 297 297 297 297 297 297 298 298 298 299 299 300 300 301 302 303 303 304 304 304 304 304 304 305 303 301 301 301 302 302 301 302 303 303 302 302 301 299 298
135 136 138 139 141 144 146 149 151 152 155 163 174 185 196 207 221 232 245 257 266 272 276 280 283 287 291 292 294 294 294 295 295 296 296 297 297 297 297 297 298 299 298 298 298 296 296 296 296 296 296 297 297 297 298 298 298 298 299 300 301 301 303 303 304 304 304 305 305 304 304 303 304 302 300 301 301 301 301 301 302 302 301 301 300 299 297 297
141 144 146 147 149 152 155 159 162 166 172 182 195 210 224 238 250 258 265 272 277 282 284 286 288 289 291 291 292 292 292 293 294 294 295 296 296 296 296 296 297 298 298 298 299 297 296 296 296 296 297 298 298 298 299 299 299 300 300 301 302 303 304 305 305 305 305 305 304 303 303 302 301 300 299 299 299 300 300 300 301 301 301 301 299 298 298 298
149 151 155 157 160 163 168 173 180 188 197 208 221 234 246 256 265 271 276 279 282 285 286 287 289 289 289 290 291 291 292 292 293 293 294 295 295 296 296 296 296 297 298 299 300 300 300 299 298 299 299 299 300 300 301 302 302 302 303 303 303 304 304 304 304 303 303 302 302 301 301 301 301 299 299 298 299 299 300 300 300 301 300 299 298 298 298 298
159 162 167 172 176 181 187 195 204 214 224 234 244 252 260 267 273 277 280 281 283 285 286 287 288 289 289 290 290 291 292 293 293 293 294 294 295 295 295 295 296 298 299 299 300 301 300 300 300 301 301 301 302 302 303 303 303 303 303 303 303 303 302 302 302 301 301 301 301 302 301 301 301 300 300 299 299 299 300 300 300 300 299 298 298 298 298 298
172 176 183 189 196 203 211 219 228 237 245 252 259 265 270 274 277 279 281 282 284 285 286 287 287 288 289 290 290 291 292 293 293 294 294 294 295 295 295 296 296 296 297 298 298 299 299 300 300 301 302 302 302 302 302 302 302 302 302 302 302 302 301 301 301 301 301 301 302 302 302 302 302 301 300 300 300 300 300 300 301 300 300 300 300 299 299 299
188 195 202 209 216 225 232 239 246 252 258 264 268 272 275 277 279 281 282 283 284 286 287 288 288 289 290 291 291 292 293 293 293 294 294 295 296 296 297 297 297 298 298 298 299 299 299 299 300 300 301 301 301 302 302 302 302 302 302 303 303 303 303 303 302 301 301 301 301 301 301 302 301 300 300 300 300 300 300 300 300 300 300 300 300 300 300 300
206 213 221 228 235 242 247 252 258 262 267 271 274 276 279 280 282 283 284 285 286 287 288 289 290 291 291 292 292 293 294 294 295 295 296 297 297 298 298 299 299 299 300 300 301 301 301 301 301 301 301 301 302 302 303 303 303 304 304 304 304 303 303 303 303 302 302 302 302 301 301 300 298 298 299 299 298 298 299 299 299 298 298 298 298 298 298 298
222 229 235 241 247 252 257 261 266 270 273 276 278 280 282 283 284 285 286 287 288 289 290 290 291 292 293 293 294 295 295 296 296 297 298 298 299 299 299 300 300 301 301 301 301 302 302 302 302 302 302 303 304 304 304 304 304 304 303 303 303 303 302 302 302 302 302 302 301 300 300 299 296 297 298 298 297 297 297 298 297 296 295 295 296 296 296 296
234 239 245 250 256 261 266 270 274 277 279 281 282 283 284 286 287 288 288 289 290 291 291 292 293 294 294 295 296 297 297 298 298 299 299 300 300 301 301 302 302 302 302 302 302 302 302 302 302 303 303 304 304 304 304 303 303 303 303 302 302 302 302 302 302 301 301 301 300 300 300 298 296 297 298 296 296 296 296 296 296 295 294 295 295 295 295 295
245 251 256 262 267 271 274 277 279 281 282 283 284 285 286 288 288 289 290 291 292 293 293 294 295 295 296 297 298 298 299 300 300 300 301 301 302 302 302 302 302 302 302 302 302 302 303 303 303 303 303 304 304 304 303 303 302 302 302 301 301 301 300 300 300 300 300 300 299 299 299 297 296 297 298 296 296 296 295 295 294 293 293 293 293 293 293 294
258 263 267 271 274 277 279 280 281 282 284 285 286 287 288 289 290 291 292 293 294 295 295 296 297 297 298 299 299 300 300 301 301 301 302 302 302 302 302 302 302 303 303 303 303 304 304 304 304 304 304 304 304 304 303 302 302 302 301 301 301 301 301 300 300 300 300 300 299 299 298 296 295 296 296 295 295 294 293 293 292 292 293 293 293 293 293 293
265 269 272 274 276 278 279 281 282 284 285 286 287 289 290 291 292 293 294 294 295 296 297 298 298 299 300 300 301 301 301 301 301 302 302 302 302 302 303 303 303 304 304 304 304 304 305 305 305 305 305 305 305 304 303 303 303 303 303 303 303 302 302 302 301 301 301 300 299 298 297 296 295 294 294 294 294 294 294 294 294 294 294 295 295 295 295 295
267 270 273 274 276 279 280 282 283 285 287 288 289 291 292 293 293 294 295 296 297 297 298 299 300 300 301 301 302 302 302 302 302 302 303 303 303 304 304 304 304 304 304 305 305 305 305 305 305 305 305 305 305 304 304 304 304 303 304 304 304 304 304 304 303 303 302 301 300 299 299 300 299 298 297 298 298 298 298 297 297 297 296 296 297 297 297 297
270 273 274 277 279 281 282 284 286 287 289 290 291 292 293 294 295 295 296 297 298 299 299 300 301 301 301 301 302 302 302 303 303 303 304 304 304 304 304 305 305 305 305 305 305 305 305 306 306 306 305 305 305 305 304 304 304 304 305 304 305 305 305 304 304 304 303 302 301 301 301 304 304 302 302 302 301 301 300 300 299 299 299 299 299 299 299 299
273 276 278 279 281 284 285 287 288 289 290 291 292 293 294 295 296 297 298 298 299 300 300 301 301 302 302 302 303 304 304 304 305 305 305 305 305 305 305 305 305 305 305 305 305 305 306 306 306 305 305 305 306 306 305 306 305 305 305 305 305 305 305 305 305 305 306 306 306 305 306 308 307 306 306 305 305 305 304 304 303 302 301 301 301 301 301 301
276 278 280 282 285 286 288 289 290 291 292 293 294 294 295 296 297 298 299 299 300 301 301 302 303 303 304 304 304 305 305 305 305 305 305 305 305 305 305 305 305 305 305 305 306 306 306 307 307 306 306 306 306 306 305 306 306 306 306 306 306 307 308 308 308 309 310 310 310 309 310 311 311 310 310 310 310 310 309 309 309 308 307 306 305 305 305 305
278 281 283 285 287 288 289 290 291 292 293 294 295 296 297 298 299 300 301 301 302 303 303 304 304 305 305 305 305 305 305 305 305 305 305 305 306 306 306 306 306 306 306 306 307 307 308 308 309 309 309 308 309 308 308 308 308 308 308 308 309 310 311 312 312 311 311 311 312 311 311 313 313 312 312 312 312 312 312 312 312 311 311 310 309 309 309 309
282 284 285 287 288 289 290 291 292 293 294 295 297 298 299 300 301 302 303 303 304 304 305 305 305 305 305 305 305 305 306 306 306 306 306 306 306 306 306 306 306 306 307 307 308 308 309 310 310 311 311 310 311 311 311 311 310 310 310 311 313 314 315 314 313 312 311 312 313 313 313 314 313 312 312 313 312 312 312 311 311 311 310 310 310 310 309 309
285 287 288 289 290 291 292 293 294 295 296 298 299 300 301 302 303 304 304 305 305 305 305 305 305 305 305 305 306 306 307 307 307 307 307 307 307 307 307 307 307 308 308 309 309 310 310 311 311 312 312 311 312 312 312 313 313 313 313 314 316 316 315 315 315 314 313 313 314 314 314 314 313 312 313 313 312 312 311 310 309 308 308 307 307 307 307 306
288 289 290 291 292 293 294 295 297 298 299 300 301 302 303 304 304 305 305 305 305 304 304 304 305 305 305 306 306 307 308 308 309 308 308 308 308 308 308 309 309 309 310 310 310 311 311 311 312 313 313 312 312 313 314 314 314 314 313 314 316 316 316 316 316 315 314 314 314 313 313 313 312 312 313 312 311 310 309 308 307 306 306 305 306 306 305 305
291 292 293 294 295 296 297 298 299 301 301 302 303 304 304 305 305 305 304 304 304 304 305 305 306 306 307 307 308 308 308 308 308 308 308 308 309 309 309 310 310 310 310 311 311 311 311 311 312 314 315 314 313 314 315 314 313 312 312 313 316 316 316 315 315 314 313 312 311 311 312 312 311 310 311 310 308 308 307 307 306 306 306 306 306 306 305 305
293 294 295 296 297 298 299 300 301 302 302 303 304 304 305 304 304 304 304 305 306 306 307 307 308 308 309 309 309 309 309 309 309 309 309 310 310 310 310 310 310 310 311 311 311 311 312 312 313 315 316 314 313 314 315 314 313 312 311 312 315 315 313 312 312 311 310 309 309 309 310 310 308 308 307 307 306 306 306 305 304 304 304 305 306 305 305 305
295 296 297 298 298 299 300 301 301 302 303 303 304 304 304 304 305 306 306 307 308 308 309 309 310 310 311 311 311 311 311 312 312 312 312 312 311 311 311 311 311 311 312 312 313 314 314 315 315 315 316 314 312 313 314 314 312 311 309 310 313 312 310 310 310 310 309 307 306 307 307 306 305 304 304 303 303 302 301 301 300 301 302 303 303 302 303 303
296 296 297 298 299 300 301 301 302 303 303 303 304 304 305 306 307 308 309 309 310 310 311 312 312 313 313 314 314 314 314 314 314 314 313 313 312 312 312 312 313 313 314 315 316 316 316 316 316 315 315 314 312 313 313 312 311 308 307 309 311 309 308 309 310 309 306 304 304 304 304 303 302 302 301 300 300 299 298 297 296 298 299 299 299 299 300 300